Wind_Speed
12 11 10 9 8 7 6 5 4 4 5 6 7 8 8 9 9 10 10 10 10 10 10 11 11 11 10 11 10 10 10 10 9 9 8 8 7 7 7 6 6 6 5 5
13 12 12 10 9 8 6 5 3 2 3 4 5 5 5 6 7 8 8 9 8 8 9 10 10 9 9 9 9 9 9 9 9 8 8 8 7 7 6 6 5 5 5 5
15 14 14 12 10 9 7 6 5 3 0 1 2 3 3 4 5 6 7 7 7 7 7 8 8 8 8 8 7 7 7 8 7 7 7 7 7 7 6 6 5 5 5 5
17 17 15 14 12 11 9 8 6 5 2 1 0 1 2 2 3 4 5 5 5 6 6 7 7 7 6 6 6 6 6 6 6 6 6 6 6 6 6 6 5 5 5 5
19 18 17 16 14 13 12 10 8 7 5 3 3 2 2 2 2 3 3 4 5 5 6 6 7 7 6 6 5 6 5 5 5 5 5 5 6 6 6 6 6 5 5 6
20 19 18 17 16 15 13 11 9 7 6 7 6 4 3 3 3 2 3 4 4 5 6 6 6 6 6 6 5 5 5 4 4 4 5 5 6 6 6 6 6 6 6 6
22 21 20 19 18 17 14 12 9 9 9 9 8 6 6 4 3 3 3 3 4 4 5 6 6 6 6 5 5 5 5 4 4 4 4 5 6 6 6 6 6 7 7 7
24 23 22 21 20 18 16 14 13 11 10 9 9 9 8 5 5 4 4 4 4 4 4 5 6 5 5 5 5 5 4 4 4 4 4 5 6 6 6 7 6 7 8 8
25 25 24 23 21 20 18 17 15 14 12 10 11 10 9 8 8 7 6 6 6 6 5 6 6 5 5 4 5 5 5 4 4 5 5 5 6 6 7 7 7 7 8 7
27 26 26 24 22 21 21 19 18 16 15 13 12 11 10 10 10 9 9 8 8 7 7 7 7 6 6 6 6 6 6 5 5 5 6 7 6 6 7 7 7 8 7 7
29 27 27 26 25 24 22 21 20 19 19 15 14 13 13 11 11 11 11 10 10 9 9 8 8 8 7 7 7 7 7 6 6 6 6 8 8 8 8 7 7 8 7 7
30 29 29 28 27 26 25 24 23 22 21 19 17 16 16 13 12 12 12 11 11 11 10 9 9 9 9 9 10 9 8 8 8 7 8 8 8 9 9 9 8 8 8 8
32 31 30 29 29 28 27 26 25 25 24 21 19 18 19 16 15 14 14 14 13 13 12 11 11 11 10 10 11 11 11 9 9 9 10 10 10 10 11 10 9 9 9 9
33 33 32 30 28 29 28 27 27 26 25 24 22 20 20 19 17 17 16 16 15 14 14 13 12 12 12 11 11 12 12 11 11 11 11 11 11 12 13 12 12 11 11 11
33 34 34 32 31 31 30 29 28 28 27 25 24 23 21 21 20 19 18 17 17 16 15 14 15 14 14 14 13 13 13 12 12 12 13 12 13 13 14 13 13 13 12 13
34 34 34 34 33 32 31 31 30 29 28 27 26 25 23 22 21 20 20 20 19 18 17 17 16 16 16 15 15 15 14 14 14 15 15 15 15 15 14 15 14 14 13 14
35 35 34 33 34 33 33 31 31 31 30 29 28 27 25 24 23 22 21 21 21 20 19 19 19 19 18 18 18 18 17 16 16 17 17 17 17 16 16 17 16 16 16 16
35 35 35 33 35 35 33 33 33 32 32 31 31 31 29 27 26 25 24 23 23 22 22 22 22 21 21 21 20 20 20 19 19 19 19 19 19 19 19 19 19 19 18 18
35 35 35 35 35 35 36 34 33 33 33 33 33 33 32 30 29 28 27 26 25 25 24 24 24 24 24 23 23 23 22 21 21 21 21 21 21 21 21 21 21 21 20 19
36 35 35 36 35 34 35 34 33 33 34 34 33 33 33 31 31 30 29 28 28 28 27 27 27 26 26 25 25 24 24 24 23 23 23 23 23 23 23 23 23 22 22 21
35 36 36 36 36 34 35 33 33 34 34 33 33 33 33 33 32 31 30 30 30 30 29 29 29 29 28 27 27 27 27 27 26 26 26 25 25 25 25 25 24 24 23 23
34 34 35 36 35 35 35 35 35 35 34 33 33 33 33 34 33 32 31 31 31 31 31 31 31 31 31 31 30 30 30 29 29 29 28 28 28 28 27 27 27 26 25 24
34 34 34 35 36 35 35 35 35 35 34 33 33 34 34 34 33 32 32 32 33 33 33 33 33 32 33 33 33 33 33 32 32 31 31 31 31 30 29 28 28 27 27 26
34 34 35 35 35 36 36 35 35 34 34 33 33 34 34 34 34 34 34 34 34 35 35 35 34 33 34 34 34 34 34 33 33 33 33 33 32 31 30 29 29 29 29 29
34 35 35 35 35 35 36 36 36 35 35 35 34 34 35 35 35 35 35 35 35 35 36 36 35 35 35 35 35 35 35 34 34 34 34 34 33 32 32 31 30 30 30 30
33 33 35 36 35 36 36 36 36 36 35 35 35 35 36 36 36 36 36 36 36 36 37 36 36 36 37 36 36 36 36 36 35 35 36 35 35 34 33 33 32 32 32 31
Wind_Direction
189 185 183 177 170 169 163 149 131 107 87 78 72 63 56 53 55 55 55 57 60 61 62 60 58 59 58 61 63 63 65 65 67 69 70 69 67 65 63 62 59 56 53 47
200 198 196 191 186 183 183 175 173 142 91 76 69 59 49 45 47 51 52 54 60 61 59 58 54 55 54 53 56 60 61 61 61 63 65 65 63 59 54 50 49 48 40 35
208 210 207 205 199 195 196 199 202 209 149 65 50 38 32 40 42 47 46 46 53 62 58 54 47 45 47 47 52 57 59 59 57 56 58 57 55 51 44 39 37 34 30 22
212 214 213 211 211 208 210 213 216 227 231 270 170 341 336 8 24 33 38 35 43 57 58 50 42 36 38 38 42 48 52 55 54 52 51 48 43 36 31 28 24 19 14 9
217 217 216 216 217 217 221 226 227 232 235 244 246 213 299 330 354 13 30 29 29 37 39 36 36 32 28 28 34 38 38 43 46 45 42 35 28 22 21 18 14 9 6 359
219 218 218 219 222 223 225 227 230 234 234 241 240 224 260 284 311 327 345 358 5 14 18 20 24 24 21 25 29 28 24 30 34 33 31 26 20 16 12 11 11 9 5 358
219 220 220 221 224 226 227 225 234 240 242 245 247 240 242 252 280 294 307 328 343 351 0 2 5 8 9 12 14 19 17 24 23 21 19 18 15 13 10 8 8 7 1 358
222 225 224 224 227 231 230 226 225 229 239 252 254 246 244 247 264 276 286 294 306 325 331 340 349 359 3 1 359 4 8 2 3 1 358 3 6 3 2 360 359 356 355 354
223 229 230 229 229 231 232 230 230 234 236 237 250 254 250 251 258 264 270 276 283 297 305 315 327 337 342 342 339 337 343 341 340 345 345 346 350 355 353 351 351 350 349 348
224 228 232 231 231 232 233 233 234 233 235 241 252 255 255 254 256 260 263 268 273 282 291 297 302 310 314 318 318 318 325 325 325 325 332 336 340 342 347 348 347 346 343 341
226 228 233 234 233 235 235 234 234 237 238 239 250 257 257 256 256 257 261 267 270 275 283 287 289 294 295 299 304 305 302 306 310 319 325 331 331 329 333 335 336 339 337 335
227 229 233 235 235 234 235 237 238 239 244 244 246 257 258 254 255 257 259 265 268 271 276 279 282 284 285 290 293 298 300 303 305 308 314 313 314 319 324 322 323 327 331 333
228 229 232 235 236 234 235 237 238 241 244 247 247 253 257 255 253 255 257 260 264 267 271 274 276 277 280 286 290 289 292 294 295 298 304 305 306 309 320 319 315 314 318 321
230 231 230 233 236 239 238 238 239 241 243 246 247 249 253 253 252 253 255 255 257 262 265 266 269 272 275 280 285 286 288 290 292 294 299 305 307 308 312 314 312 310 307 308
232 233 232 233 235 239 241 241 241 241 241 243 247 250 251 253 253 251 251 252 252 256 262 263 265 268 271 276 279 283 285 288 290 292 295 298 302 307 310 308 306 305 301 303
232 233 234 235 237 240 241 241 242 242 243 245 247 249 249 250 251 250 248 249 251 254 258 261 264 266 268 272 275 277 282 285 287 290 293 294 297 302 303 304 304 304 300 301
232 233 234 236 238 240 241 242 242 242 243 245 247 248 248 249 250 250 250 251 253 254 257 259 261 263 266 269 273 275 280 282 285 287 291 292 294 296 296 297 298 300 298 297
232 233 235 237 239 241 242 243 243 243 244 245 246 248 248 249 249 250 250 251 253 256 257 258 260 262 265 267 269 271 275 280 282 285 288 290 292 291 291 292 293 294 296 295
231 233 235 237 241 244 244 243 244 245 246 245 246 248 249 249 249 248 249 250 253 255 257 259 260 262 264 265 267 269 272 276 280 283 285 286 288 289 289 290 291 290 290 292
231 233 234 237 239 242 245 245 245 247 247 246 247 248 249 250 250 249 248 250 253 254 256 257 259 261 263 265 266 268 270 272 275 279 282 285 286 287 289 291 289 286 286 286
232 232 234 237 240 242 244 245 246 247 248 248 247 248 248 249 249 249 249 249 251 253 255 257 259 261 263 265 266 267 269 271 273 276 279 282 284 285 286 288 286 284 282 281
232 234 235 238 240 243 245 246 247 249 250 249 248 247 248 249 249 248 248 249 250 252 255 257 259 261 263 265 267 267 268 270 271 273 276 278 281 282 284 285 284 283 281 279
232 234 237 239 241 244 247 249 250 250 250 249 249 249 248 248 248 248 248 249 250 252 254 257 259 260 262 264 266 267 268 269 270 272 274 276 278 279 281 282 282 282 281 280
234 236 238 240 242 243 246 248 250 250 249 250 250 249 248 248 248 248 249 249 250 253 255 257 259 260 262 264 265 267 267 268 269 271 273 275 277 277 279 280 281 281 280 278
237 238 239 241 243 245 246 248 249 250 251 251 251 250 250 250 249 249 250 250 252 254 256 257 259 260 261 263 265 266 267 268 270 271 272 273 275 276 277 277 278 279 279 279
239 240 241 242 244 246 247 248 249 249 249 251 251 251 251 252 252 251 250 252 253 255 257 257 258 259 261 262 264 266 268 269 269 271 272 272 274 274 275 276 276 276 278 278
Height
5919 5922 5924 5926 5928 5930 5930 5931 5932 5931 5931 5930 5930 5929 5929 5927 5926 5925 5924 5923 5922 5921 5919 5918 5917 5916 5915 5913 5912 5911 5910 5909 5908 5906 5906 5905 5904 5903 5902 5902 5901 5900 5899 5899
5919 5921 5923 5925 5927 5928 5929 5931 5932 5932 5931 5931 5931 5931 5930 5929 5928 5927 5926 5925 5924 5922 5921 5920 5919 5918 5916 5915 5914 5913 5912 5911 5909 5908 5907 5906 5905 5904 5904 5903 5902 5901 5900 5899
5917 5920 5921 5924 5926 5927 5929 5930 5931 5931 5932 5932 5932 5932 5931 5930 5929 5928 5927 5926 5925 5924 5923 5921 5920 5919 5918 5917 5916 5915 5914 5912 5911 5910 5909 5908 5907 5906 5904 5903 5902 5901 5900 5899
5914 5916 5919 5922 5924 5926 5928 5929 5930 5931 5931 5932 5933 5934 5933 5931 5930 5929 5928 5927 5926 5925 5924 5922 5921 5920 5919 5918 5917 5916 5915 5914 5913 5911 5910 5909 5908 5906 5905 5904 5903 5901 5900 5899
5912 5914 5917 5919 5922 5924 5926 5927 5928 5929 5931 5932 5932 5934 5934 5931 5931 5930 5929 5928 5927 5926 5924 5923 5922 5921 5920 5919 5918 5916 5916 5915 5913 5912 5911 5910 5908 5907 5906 5904 5903 5901 5900 5899
5909 5911 5914 5917 5919 5921 5923 5925 5927 5928 5930 5932 5932 5933 5933 5931 5930 5930 5929 5928 5927 5926 5925 5924 5922 5921 5920 5919 5918 5917 5916 5915 5914 5913 5912 5910 5909 5908 5906 5905 5903 5902 5900 5899
5905 5908 5910 5913 5916 5918 5921 5924 5926 5928 5929 5930 5930 5930 5932 5930 5930 5929 5929 5928 5927 5926 5926 5924 5923 5921 5920 5919 5918 5917 5916 5915 5914 5913 5912 5911 5909 5908 5906 5905 5903 5902 5900 5898
5902 5905 5907 5910 5913 5915 5918 5921 5925 5927 5929 5929 5927 5928 5930 5929 5928 5928 5928 5927 5927 5926 5925 5924 5923 5922 5920 5919 5918 5917 5916 5915 5914 5913 5912 5911 5909 5908 5906 5904 5903 5901 5899 5898
5899 5901 5903 5906 5909 5912 5914 5917 5921 5923 5924 5926 5926 5926 5926 5926 5926 5926 5926 5926 5926 5925 5924 5924 5923 5921 5920 5919 5918 5917 5916 5915 5914 5913 5911 5910 5909 5907 5906 5904 5902 5900 5899 5897
5893 5897 5898 5901 5905 5907 5910 5913 5916 5919 5920 5923 5924 5923 5924 5923 5924 5924 5924 5924 5924 5924 5923 5922 5922 5921 5920 5919 5917 5916 5915 5914 5913 5912 5911 5909 5908 5906 5905 5903 5902 5900 5898 5896
5888 5892 5894 5897 5900 5903 5906 5908 5911 5914 5916 5920 5922 5924 5921 5921 5921 5921 5922 5922 5922 5922 5921 5921 5920 5919 5919 5917 5916 5915 5914 5913 5912 5911 5910 5909 5907 5906 5904 5902 5901 5899 5897 5895
5882 5886 5889 5892 5894 5897 5900 5903 5906 5909 5910 5913 5917 5921 5916 5917 5918 5918 5919 5919 5919 5920 5919 5919 5918 5918 5917 5916 5915 5914 5913 5911 5910 5909 5908 5907 5905 5904 5902 5900 5899 5897 5896 5894
5875 5880 5883 5886 5890 5892 5894 5897 5900 5903 5905 5908 5911 5915 5912 5913 5914 5915 5915 5916 5916 5916 5917 5916 5916 5915 5915 5914 5913 5912 5911 5910 5909 5907 5906 5905 5903 5902 5901 5899 5897 5895 5894 5892
5869 5872 5878 5882 5884 5886 5888 5891 5894 5897 5899 5902 5905 5907 5907 5908 5909 5910 5911 5912 5912 5913 5913 5913 5913 5912 5912 5911 5910 5909 5908 5907 5906 5905 5904 5903 5901 5900 5899 5896 5895 5893 5892 5890
5861 5865 5869 5873 5876 5879 5882 5885 5888 5890 5893 5897 5899 5900 5902 5903 5904 5905 5906 5907 5908 5909 5909 5909 5909 5909 5908 5908 5907 5907 5906 5905 5904 5902 5901 5900 5899 5897 5895 5893 5892 5890 5889 5887
5854 5858 5862 5865 5868 5871 5874 5878 5881 5884 5886 5889 5892 5894 5896 5897 5898 5900 5901 5902 5903 5904 5905 5905 5905 5905 5905 5904 5904 5903 5902 5901 5900 5899 5898 5896 5895 5894 5892 5890 5889 5887 5885 5884
5846 5850 5854 5858 5861 5863 5867 5871 5873 5876 5879 5883 5884 5888 5889 5891 5892 5894 5896 5897 5898 5899 5900 5900 5900 5900 5900 5900 5899 5899 5898 5897 5896 5895 5894 5893 5891 5890 5889 5887 5885 5884 5882 5880
5838 5842 5846 5850 5853 5855 5862 5863 5866 5869 5872 5875 5877 5879 5882 5884 5886 5887 5889 5890 5892 5893 5894 5894 5894 5894 5894 5894 5894 5894 5893 5892 5892 5891 5889 5888 5887 5886 5884 5883 5881 5879 5878 5876
5830 5834 5838 5842 5844 5847 5852 5855 5858 5860 5863 5866 5869 5871 5873 5876 5878 5880 5882 5883 5885 5886 5887 5887 5888 5888 5888 5888 5888 5888 5887 5887 5886 5885 5884 5883 5882 5880 5878 5877 5875 5874 5872 5871
5822 5826 5830 5833 5836 5840 5844 5846 5849 5852 5854 5857 5860 5863 5865 5868 5870 5872 5874 5876 5877 5878 5879 5880 5881 5881 5882 5882 5882 5881 5881 5880 5880 5879 5879 5878 5876 5875 5873 5871 5869 5868 5866 5865
5814 5817 5821 5824 5827 5831 5834 5837 5840 5844 5846 5849 5851 5854 5856 5859 5861 5864 5865 5867 5869 5870 5871 5872 5873 5874 5874 5875 5875 5874 5874 5874 5873 5873 5872 5871 5870 5869 5867 5865 5863 5861 5860 5858
5805 5809 5812 5815 5819 5824 5825 5828 5831 5833 5836 5839 5842 5844 5847 5849 5852 5854 5856 5858 5860 5861 5863 5864 5865 5866 5866 5866 5867 5866 5866 5866 5866 5865 5865 5864 5863 5862 5860 5859 5857 5855 5853 5852
5797 5801 5804 5808 5812 5814 5816 5818 5821 5824 5827 5829 5832 5835 5837 5840 5842 5844 5847 5849 5851 5852 5854 5855 5856 5856 5857 5857 5858 5858 5858 5858 5857 5857 5856 5856 5855 5854 5853 5851 5849 5848 5846 5844
5789 5792 5795 5798 5802 5804 5806 5808 5811 5814 5817 5819 5822 5825 5827 5830 5832 5835 5837 5839 5841 5842 5843 5845 5846 5847 5847 5848 5848 5849 5849 5848 5848 5848 5847 5847 5846 5845 5844 5843 5841 5840 5838 5837
5780 5783 5786 5789 5792 5794 5797 5799 5802 5804 5807 5809 5812 5814 5817 5819 5822 5824 5827 5829 5831 5832 5833 5835 5836 5837 5837 5838 5838 5839 5838 5838 5838 5838 5838 5837 5836 5836 5835 5834 5833 5831 5830 5828
5771 5774 5777 5779 5782 5785 5787 5790 5792 5794 5797 5799 5802 5804 5806 5808 5811 5813 5816 5818 5820 5821 5823 5824 5825 5826 5827 5828 5828 5828 5828 5828 5828 5828 5827 5827 5826 5826 5825 5824 5823 5822 5821 5820